Wind_Gust
12 18 23 32 38 33 22 17 13 14 14 12 13 11 20 18 12 16 19 16 23 22 24 17 24 25 23 22 17 18 14 17 21 21 18 16 16 15 14 13 14 15 16 15 17 18 18 15 13 14 15 15 15 16 17 17 15 15 17 16 15 12 11 12 13 13 14 16 12 9 11 15 11 13 12 12 10 14 18 18 19 17 15 13 13 13
17 18 31 30 20 16 17 16 14 15 24 18 13 14 20 22 19 16 23 18 26 23 19 21 24 20 18 18 17 18 20 20 24 24 19 17 14 16 19 15 14 15 15 15 15 17 16 16 13 14 14 16 18 14 15 17 16 13 13 13 14 11 10 10 10 13 11 8 12 16 14 15 11 11 15 16 15 18 18 19 18 16 14 14 13 12
28 39 38 21 13 12 14 18 18 19 22 22 17 17 16 24 19 17 18 17 25 22 14 29 26 23 19 15 13 16 16 18 17 22 24 22 16 16 16 15 17 20 22 19 18 16 16 17 16 15 12 10 13 13 13 14 15 12 11 11 11 11 10 9 10 10 11 7 9 13 13 14 14 8 13 18 17 17 20 19 16 15 14 14 13 11
30 38 17 13 13 17 18 20 21 22 22 19 19 11 22 19 24 24 27 13 26 29 23 25 27 20 14 11 12 10 14 16 12 15 16 16 19 19 19 17 21 22 23 20 20 17 17 17 17 14 12 11 11 13 13 13 14 12 11 10 10 10 8 10 8 9 9 11 10 10 13 10 12 17 18 18 18 20 20 19 16 15 13 13 13 13
30 11 16 12 17 19 20 19 21 23 24 22 20 16 13 17 26 27 24 13 28 16 34 28 24 14 15 18 15 11 12 14 13 16 16 11 9 12 13 12 16 20 18 18 20 19 17 17 16 14 13 12 11 13 13 12 12 11 10 9 9 10 9 8 9 9 13 14 12 11 11 15 16 15 16 16 18 18 18 17 15 14 13 13 13 11
19 12 24 21 22 23 25 22 28 24 22 23 20 18 15 12 15 26 20 19 28 21 25 36 20 17 10 17 16 13 17 14 14 18 17 17 16 15 16 16 14 14 16 19 21 21 21 19 16 15 14 12 12 13 10 10 11 10 10 9 9 9 8 10 8 10 12 12 16 16 18 17 14 14 13 16 17 15 15 15 11 14 13 12 13 12
16 15 26 29 26 23 26 22 21 22 22 17 27 17 21 23 17 13 23 22 27 33 22 17 33 21 12 18 16 16 17 16 15 17 18 18 18 19 17 19 18 16 18 17 18 20 20 16 17 16 15 13 12 10 10 11 11 10 10 10 9 9 9 8 8 7 10 11 10 14 13 12 15 17 14 14 15 17 14 13 15 15 13 12 13 11
22 21 24 27 27 26 25 30 26 27 24 34 18 12 20 21 19 23 17 17 21 12 30 19 22 30 21 20 16 16 18 17 17 19 19 19 18 19 17 20 19 20 18 23 21 19 19 18 18 17 16 15 13 12 13 12 11 11 11 12 10 9 9 9 10 8 8 13 10 12 12 14 14 15 16 15 16 15 15 17 16 15 14 13 12 12
22 25 27 28 28 28 30 29 18 25 36 29 13 17 15 17 23 23 18 16 22 28 23 16 15 21 20 13 14 18 21 18 20 21 21 20 22 19 17 22 19 19 19 21 20 18 19 20 18 16 17 15 15 14 13 13 12 11 11 12 10 10 9 9 9 9 8 10 13 15 16 16 15 15 15 14 14 15 15 17 14 16 14 13 12 11
27 19 22 21 28 32 22 21 20 21 33 23 18 13 18 20 19 18 14 13 15 35 25 25 21 25 12 12 18 17 19 22 23 22 22 23 26 20 21 20 18 16 16 18 20 22 19 19 18 17 17 18 16 14 13 12 13 12 11 12 11 9 8 8 8 8 7 8 12 14 15 18 16 14 13 13 15 15 15 16 14 14 14 12 12 11
18 20 15 32 32 25 16 17 29 21 22 12 22 17 22 24 19 11 12 15 13 26 30 24 21 21 22 20 29 30 35 34 21 19 22 23 21 20 20 20 20 19 19 18 18 22 23 18 20 20 20 19 17 15 15 14 13 13 12 11 11 9 9 9 10 10 10 9 10 14 14 16 16 14 14 15 13 14 14 16 14 14 13 11 10 10
24 24 30 28 21 25 15 25 25 25 16 21 27 25 17 20 7 8 10 7 31 26 14 26 26 19 23 16 17 26 18 28 34 32 30 28 29 24 23 22 20 18 19 19 21 23 25 24 20 21 22 22 19 17 16 14 13 13 12 12 12 10 10 10 10 11 11 11 11 11 12 13 13 13 14 15 15 16 16 15 16 12 13 11 10 10
23 29 23 18 22 24 30 19 24 26 20 23 20 20 18 17 17 23 14 20 25 26 16 20 17 16 25 25 36 34 20 31 30 36 38 35 31 26 23 21 19 18 18 20 19 22 24 25 25 23 22 22 20 19 17 16 14 13 13 13 15 12 10 11 10 11 10 11 11 11 10 8 9 11 13 14 15 14 16 15 15 13 12 10 11 10
18 22 28 21 20 29 24 29 26 27 28 24 31 23 21 26 24 17 14 15 11 13 8 29 18 25 10 9 31 38 30 33 32 31 35 35 35 31 27 23 21 18 18 18 17 19 21 23 24 21 21 21 19 18 18 16 15 15 14 13 15 12 11 11 12 11 12 11 12 13 13 14 15 15 16 15 17 14 14 15 15 13 12 11 10 10
16 31 33 26 29 27 33 31 25 22 28 34 22 22 17 18 25 21 15 22 17 12 9 15 28 24 11 14 32 37 33 27 26 26 26 24 25 23 21 19 19 18 17 20 19 20 19 21 22 22 21 20 19 19 19 17 16 16 15 15 15 14 11 12 11 12 12 13 13 13 14 14 14 16 16 15 15 15 17 15 15 12 11 12 10 11
14 18 19 28 11 31 29 24 21 19 11 27 18 11 13 22 14 16 18 14 11 11 15 20 25 4 10 10 9 17 22 25 28 29 28 25 22 22 22 24 23 22 21 21 20 20 19 19 21 21 20 20 19 19 18 18 17 17 15 14 13 13 12 12 12 11 12 12 13 13 15 14 15 16 16 15 15 15 15 15 15 13 11 10 10 9
19 22 16 30 16 34 26 21 26 18 32 29 19 28 22 14 15 10 6 7 11 12 14 12 9 8 10 22 18 23 25 27 30 29 29 27 26 25 25 25 23 22 22 21 22 21 21 21 19 20 20 20 19 18 19 19 17 17 16 15 15 14 12 12 11 12 11 12 13 13 12 13 15 16 16 16 15 14 13 14 13 12 10 9 9 10
21 16 22 32 28 30 35 22 22 20 15 21 29 22 8 8 10 22 16 10 12 16 15 10 13 12 11 16 8 24 25 24 30 30 30 28 29 27 25 25 25 24 21 21 21 20 22 22 23 21 20 19 19 19 18 18 15 16 15 16 16 14 14 11 12 12 12 13 13 13 14 14 15 16 15 15 15 13 14 12 11 10 11 9 9 10
12 16 25 27 22 22 27 23 21 17 10 17 21 12 27 22 22 10 21 16 17 18 12 9 17 15 16 26 18 22 28 26 27 27 28 29 30 28 24 24 24 23 23 24 24 23 22 22 24 22 20 19 19 19 18 18 18 16 13 13 14 15 13 12 12 11 12 11 12 12 13 13 14 13 13 13 13 13 14 11 11 10 8 8 9 13
13 11 14 17 25 18 13 23 26 26 19 9 10 21 15 10 13 13 21 13 23 10 11 7 17 17 14 33 29 29 30 31 29 28 31 33 31 29 29 29 28 28 25 24 24 22 23 22 23 24 22 21 22 21 19 18 18 18 15 14 13 12 12 12 12 11 12 10 12 12 12 12 13 13 13 13 13 14 12 10 10 9 9 11 12 12
16 8 13 13 12 17 25 27 26 24 26 21 13 17 22 24 13 14 10 15 18 18 18 17 13 18 15 27 34 33 34 35 37 36 31 31 29 29 30 32 29 28 26 25 25 24 24 23 22 22 20 20 20 19 18 19 20 18 15 14 14 15 13 12 11 11 11 12 12 14 13 13 13 13 13 12 13 13 10 9 9 10 10 12 12 12
16 12 15 11 18 23 13 18 16 18 14 11 16 15 13 19 12 17 17 10 12 18 17 19 17 15 15 25 34 37 37 38 35 37 33 29 29 29 29 27 29 28 24 25 25 25 25 23 23 22 21 21 22 20 19 18 18 17 16 15 15 14 12 13 11 11 11 10 13 13 13 13 12 12 12 13 11 12 10 9 10 11 14 14 11 13
22 9 16 15 18 21 15 10 12 13 21 12 13 11 11 13 16 15 13 13 7 11 13 15 15 12 13 20 26 35 35 33 32 32 32 30 30 28 28 26 25 26 27 27 25 25 25 24 24 23 23 23 23 21 20 18 18 17 15 15 13 15 12 11 10 10 12 13 14 13 13 13 12 13 12 12 10 11 10 10 11 13 16 14 14 14
10 15 14 11 8 8 13 9 19 18 9 11 12 7 15 14 13 16 12 14 15 7 9 7 15 15 11 7 19 30 33 31 33 33 32 29 26 27 27 26 26 25 23 23 24 23 25 22 21 22 23 24 23 21 20 18 17 16 15 15 15 14 13 11 11 13 13 14 14 13 13 13 12 13 12 12 11 11 9 11 12 14 15 13 15 16
20 10 17 19 19 14 18 10 12 12 16 12 13 11 13 16 10 9 11 7 17 9 16 16 15 10 9 14 19 22 22 24 26 25 33 31 26 28 28 27 27 26 25 24 25 23 24 23 23 24 23 22 21 20 20 20 19 18 16 15 15 14 13 12 12 14 14 14 14 13 14 12 12 13 12 11 10 10 10 12 13 14 14 15 15 14
8 7 13 22 22 22 31 28 28 19 19 13 8 9 11 11 12 15 14 7 12 7 9 16 11 11 7 15 24 28 27 24 23 24 24 33 33 31 28 28 28 28 28 26 25 24 27 26 24 23 21 22 21 21 20 21 20 19 17 16 14 15 14 14 13 13 14 14 15 13 13 11 11 12 11 10 10 10 11 13 14 14 14 15 16 15
12 6 7 13 17 18 17 14 9 11 10 14 8 7 11 10 8 10 15 13 16 8 7 10 19 10 13 16 24 25 27 26 23 23 26 23 24 29 29 29 29 28 29 29 28 27 25 24 24 24 22 21 20 20 21 22 22 20 19 18 15 14 15 17 15 13 14 13 13 13 12 12 11 11 10 10 10 10 12 14 14 15 14 14 16 16
6 6 5 7 6 9 14 7 7 9 7 7 6 7 8 9 12 11 12 18 13 15 9 6 13 20 15 23 25 24 20 22 24 25 23 23 26 28 27 26 22 25 24 25 24 25 27 28 25 23 24 22 22 21 21 19 21 21 22 20 16 16 17 18 17 14 14 14 13 12 13 11 10 10 10 10 10 11 12 13 14 14 13 15 16 15
9 10 8 4 5 8 7 10 12 16 8 8 7 6 9 11 9 11 8 11 11 15 16 8 14 21 19 25 26 29 31 30 29 29 29 28 27 24 26 28 29 28 28 28 28 27 27 28 27 25 24 24 23 23 21 20 21 20 19 18 17 18 18 18 18 15 15 14 14 13 12 11 10 10 11 12 12 12 12 13 14 14 14 15 15 15
11 10 5 7 7 13 18 19 19 20 15 9 11 7 10 13 8 9 5 8 10 12 16 17 11 20 24 28 27 29 28 29 26 22 23 26 30 31 31 30 30 30 30 31 31 29 27 27 27 26 24 23 24 24 22 21 21 22 22 20 20 20 19 19 17 17 16 15 14 13 12 12 10 11 12 13 13 12 13 14 15 17 17 16 16 15
13 11 6 7 8 8 9 16 32 27 19 15 15 10 7 12 10 8 8 5 12 6 16 18 12 12 8 12 18 19 22 21 24 27 31 30 29 30 32 31 30 30 29 28 30 30 29 29 29 28 26 25 25 25 23 23 22 21 21 20 20 20 19 18 18 16 17 16 14 15 13 13 12 13 13 12 12 12 15 16 17 17 16 15 15 16
10 9 6 7 9 9 8 14 9 8 10 14 13 14 9 8 8 6 14 8 8 9 11 12 14 15 6 13 22 25 26 29 27 25 25 26 28 30 31 30 30 29 29 29 29 29 29 29 29 31 29 27 25 24 24 24 23 23 23 23 22 21 20 19 18 18 17 16 16 15 15 14 14 14 13 13 13 14 14 16 17 16 14 15 15 15
8 8 6 5 10 7 10 9 8 12 12 10 11 10 9 6 4 3 6 6 9 16 14 14 19 15 18 20 25 23 28 24 25 27 28 26 28 31 33 33 32 31 30 30 30 30 30 30 29 29 28 27 26 25 25 26 26 25 25 24 22 21 20 20 19 19 18 17 16 16 15 14 16 15 14 14 13 13 14 16 15 15 14 15 14 14
4 6 5 5 10 6 9 9 8 18 20 15 11 6 6 8 9 10 7 9 7 15 19 16 13 14 28 24 30 23 23 29 32 30 33 37 32 27 26 28 31 31 29 29 30 30 28 26 26 28 28 27 26 25 26 26 30 27 23 24 22 22 21 21 20 19 19 17 16 17 16 17 16 15 15 14 14 13 13 14 14 13 13 15 14 15
7 5 3 4 7 7 8 8 16 17 13 11 9 8 9 13 16 11 7 7 6 9 15 13 16 19 22 28 32 32 33 32 27 26 22 30 35 35 33 29 28 30 30 28 26 25 27 27 26 25 24 25 26 25 24 22 21 22 22 22 22 21 22 21 21 19 18 18 17 17 18 16 16 17 17 16 14 13 14 14 13 14 14 15 15 16
5 7 4 8 7 9 8 7 20 14 9 8 13 10 9 11 7 16 11 10 8 9 13 18 17 20 22 21 21 29 29 23 21 24 29 26 28 33 31 31 29 28 29 29 29 28 27 26 27 26 24 21 21 23 24 24 24 25 23 21 21 22 21 21 20 20 18 18 19 18 17 19 19 19 17 15 14 15 14 13 13 15 13 13 13 12
11 8 7 9 5 9 8 7 9 8 8 12 9 7 8 6 5 13 13 8 8 10 8 14 15 17 18 18 13 12 17 20 18 11 14 23 25 26 35 32 31 32 30 26 27 28 26 24 25 25 24 22 23 24 24 23 23 23 23 22 22 22 21 21 21 20 20 19 18 18 19 20 20 19 16 15 16 15 13 14 14 13 13 14 13 14
9 12 9 13 9 9 8 6 7 8 11 13 12 8 7 6 7 8 17 9 11 13 8 5 15 19 18 13 14 18 19 22 14 15 19 21 21 19 15 20 24 25 25 24 21 21 22 23 24 24 26 25 25 24 25 24 26 25 24 22 22 23 22 23 22 20 20 19 18 20 20 19 19 18 16 16 16 15 14 14 13 14 14 16 15 14
12 16 13 13 5 5 6 10 9 11 17 16 13 10 6 10 13 9 11 10 10 9 11 5 8 11 15 21 18 23 23 23 22 23 24 23 21 21 21 19 22 23 24 26 28 26 25 25 25 23 24 26 27 26 25 24 25 26 24 23 24 23 23 23 22 22 21 19 19 20 19 18 17 16 16 16 15 16 16 15 16 15 14 15 14 14
10 5 6 8 6 4 5 5 5 11 9 8 8 9 5 8 10 16 12 16 12 12 9 9 4 13 14 13 27 25 28 22 21 26 21 27 26 24 26 26 24 24 24 24 22 25 25 24 25 24 27 27 27 27 28 26 26 24 25 25 24 25 25 23 21 20 18 18 19 18 17 16 17 16 17 16 15 14 16 14 14 15 15 14 14 14
10 5 6 9 5 5 5 5 8 8 14 7 10 10 7 9 16 13 16 12 8 9 13 8 7 7 18 19 22 24 21 24 29 24 21 19 21 19 19 23 27 28 28 26 25 23 26 26 27 28 27 27 27 27 27 28 28 26 24 24 24 24 22 20 19 19 19 19 19 17 17 16 17 18 15 15 16 16 15 14 15 14 15 15 14 14
5 6 5 6 3 6 5 8 8 8 11 3 6 10 8 13 6 8 13 9 5 9 11 9 7 10 18 25 24 22 23 10 21 22 24 27 29 24 21 21 22 20 22 23 24 25 25 25 22 23 24 24 31 29 27 27 28 26 25 24 24 22 20 19 19 19 19 20 19 17 16 16 16 17 17 14 15 15 15 12 14 14 14 14 14 15
13 12 7 9 10 5 7 8 7 11 6 4 8 11 13 14 12 10 5 5 5 8 7 9 6 6 15 17 19 14 9 12 21 26 26 25 25 26 26 27 29 28 27 25 24 24 28 26 26 27 25 25 27 28 27 28 27 25 24 26 23 21 21 21 21 21 21 21 20 18 17 17 18 18 16 15 15 16 15 13 14 13 14 15 14 15
6 11 6 8 9 11 8 10 11 10 12 8 8 9 4 8 8 6 7 6 8 9 6 6 9 6 9 17 16 9 11 14 13 17 19 20 21 20 22 24 24 25 25 25 28 27 26 27 25 25 23 26 26 26 26 29 28 25 26 25 21 21 21 21 22 22 21 21 20 18 17 18 18 17 14 15 15 14 14 13 13 13 15 16 16 14
5 8 11 11 6 10 8 9 8 6 6 8 10 7 5 2 4 5 8 7 9 9 4 6 6 8 8 11 9 13 11 14 20 23 27 24 24 26 27 28 29 29 28 28 26 24 24 27 26 25 23 24 25 26 27 27 29 26 26 22 22 24 24 23 22 22 21 21 19 19 18 17 17 16 15 14 15 15 14 11 12 15 14 16 15 14
12 8 7 13 7 4 8 6 8 10 10 10 7 6 7 7 9 10 10 9 7 5 7 5 6 9 7 7 13 6 13 14 18 14 17 20 21 19 20 21 20 20 21 21 20 22 22 23 24 25 25 23 24 24 24 25 27 29 26 22 23 24 23 23 23 22 21 20 19 19 19 18 16 15 15 14 12 13 11 14 14 15 15 15 15 14
6 7 6 10 4 13 10 8 11 8 6 9 6 6 6 7 9 8 9 8 6 9 10 8 6 8 7 8 10 11 10 13 16 16 17 18 20 22 23 24 23 25 26 25 23 22 22 22 24 25 26 25 22 22 22 22 22 24 21 22 23 23 23 22 22 21 20 21 20 18 19 19 18 16 14 13 11 11 11 12 12 13 14 13 14 13
5 8 8 6 5 10 9 5 3 5 5 6 3 8 7 8 9 7 6 3 5 6 5 6 5 8 7 8 7 12 11 13 19 18 17 17 20 20 20 22 23 20 20 23 22 21 21 23 22 23 23 25 23 21 21 21 21 21 20 21 22 22 22 21 22 23 22 21 19 19 19 19 15 17 15 14 14 12 11 10 12 13 14 14 13 13
7 7 5 6 11 7 5 5 5 8 12 10 10 5 7 5 6 6 7 6 7 9 9 9 6 6 8 9 10 13 12 8 15 18 17 16 17 17 19 22 22 23 23 23 22 22 24 21 22 23 22 21 20 21 21 20 21 21 22 22 22 23 23 22 19 20 19 19 19 19 17 18 18 17 16 13 12 9 7 12 13 12 9 7 9 14
7 6 6 11 12 8 9 6 3 10 5 4 5 6 8 6 9 8 8 9 8 7 8 9 9 7 7 8 12 14 14 12 12 15 18 18 18 18 20 22 22 23 23 24 24 24 23 23 24 24 22 21 19 20 21 21 20 20 21 21 21 23 23 21 21 20 21 20 20 19 18 17 16 15 15 14 13 11 10 11 10 8 16 11 9 11
6 5 7 11 14 9 10 8 6 9 8 3 4 6 8 8 9 12 7 5 6 3 5 7 8 10 7 5 6 13 14 18 14 15 16 17 18 22 25 26 24 22 24 23 23 22 23 22 23 24 24 22 19 20 20 20 20 21 21 21 21 23 23 23 22 21 20 20 20 21 21 19 17 15 14 13 13 13 14 10 13 15 14 9 7 12
Wind_Speed
3 7 10 16 19 19 14 7 4 5 8 3 3 4 7 6 4 4 6 6 6 5 8 7 12 14 15 14 11 10 9 9 12 11 9 9 8 9 8 8 8 9 10 10 8 7 6 5 5 6 7 8 8 8 8 9 9 10 10 10 9 7 7 6 6 5 7 8 6 4 5 7 4 5 4 5 5 6 5 6 6 6 7 7 7 7
6 8 16 18 9 5 5 4 5 5 8 7 4 4 7 7 7 4 6 7 5 7 1 8 14 11 11 9 8 8 11 12 15 15 11 11 9 9 11 9 9 8 7 10 8 7 6 5 6 6 7 10 11 7 7 8 8 8 9 9 8 7 6 5 5 5 4 3 4 6 6 6 5 5 6 7 6 6 6 7 6 6 7 8 8 7
11 18 17 6 1 1 3 5 6 8 10 10 6 5 3 7 4 3 3 6 5 7 4 10 13 10 10 8 6 9 8 6 6 13 14 13 11 9 9 9 11 9 10 10 10 7 5 5 6 5 4 6 9 8 7 8 9 8 7 7 7 6 6 4 3 4 4 3 4 5 6 6 6 4 5 7 6 6 7 7 6 7 7 8 8 7
12 15 3 6 6 5 4 5 7 7 8 8 7 5 8 2 8 8 6 2 2 6 8 9 11 8 6 6 5 4 3 4 4 3 6 6 12 12 11 10 13 11 10 11 11 11 8 5 4 4 4 6 7 8 7 8 9 7 6 6 6 6 5 4 2 2 3 5 5 5 7 6 7 7 7 7 6 6 8 8 6 7 7 8 7 7
8 2 10 6 10 9 7 5 8 8 10 12 10 6 5 5 7 7 4 4 5 6 15 10 10 6 8 9 6 4 3 7 5 6 4 3 4 4 6 6 10 12 11 11 11 12 11 9 8 7 6 6 7 7 7 7 7 5 6 5 6 6 5 5 5 4 5 7 7 6 7 9 9 7 6 6 5 5 6 7 7 6 6 7 7 6
9 6 14 13 11 12 10 9 12 11 10 10 11 10 7 4 4 6 4 9 3 2 5 20 3 3 4 11 9 7 5 7 6 8 7 6 8 9 9 9 9 9 10 12 13 14 14 12 10 8 8 6 6 7 6 6 7 6 6 6 6 5 5 6 5 5 5 7 8 9 9 9 7 6 5 5 5 5 6 7 5 7 6 6 6 6
6 5 12 14 12 12 12 10 10 9 10 8 7 9 8 7 5 2 3 8 5 9 9 4 13 4 4 10 9 9 9 10 7 9 9 7 10 11 10 10 10 11 12 11 13 13 12 11 9 9 7 6 7 6 6 7 7 7 6 6 6 5 5 5 5 5 5 5 5 8 8 7 7 7 4 4 3 5 5 6 7 7 6 7 7 7
7 12 11 13 13 13 12 13 12 15 11 12 3 7 8 9 8 5 4 6 4 1 11 10 1 10 6 7 9 10 12 10 11 11 10 9 12 12 11 11 11 10 11 13 13 12 12 12 12 11 9 7 7 6 7 7 7 7 7 8 6 5 6 5 6 5 4 6 6 7 7 6 6 7 8 6 5 5 5 7 7 7 7 7 7 7
10 11 10 12 13 12 14 12 8 10 11 5 2 5 5 7 10 5 4 5 2 7 6 8 6 4 4 4 6 9 14 12 14 14 13 12 13 11 11 14 12 12 12 12 11 10 12 12 10 10 10 8 8 8 8 7 6 6 7 8 6 6 6 5 6 6 4 4 7 8 8 8 6 8 7 6 5 6 5 8 7 8 8 8 7 7
6 10 10 10 11 14 9 4 6 11 12 7 3 2 3 3 4 5 6 6 2 6 8 13 10 6 3 3 9 8 10 12 12 13 12 13 15 11 13 13 12 11 8 9 9 11 12 12 11 9 10 9 8 8 9 8 7 5 7 7 7 6 5 5 6 5 5 6 7 8 8 10 8 7 7 6 7 6 6 9 7 7 7 7 6 6
3 11 9 9 13 9 5 5 9 8 6 3 2 5 6 3 2 1 5 4 4 7 12 14 12 9 5 9 14 14 15 19 11 9 10 12 13 12 13 12 12 11 10 10 9 10 10 10 11 11 11 10 10 9 9 8 8 7 6 7 7 6 5 5 6 6 6 5 6 8 8 9 10 9 8 8 7 6 7 8 7 7 7 6 6 5
14 7 12 7 9 7 8 8 6 6 4 7 4 5 4 8 3 1 1 2 4 8 8 17 16 10 8 6 9 13 8 15 18 19 19 19 19 14 14 12 12 12 11 11 10 11 11 11 11 11 11 11 10 10 10 8 8 8 7 7 8 6 6 6 6 6 6 5 6 6 7 8 8 9 7 8 8 8 9 8 8 6 7 6 6 6
11 11 9 9 8 14 12 8 7 7 7 10 5 4 8 3 3 3 3 4 10 8 6 12 9 5 11 8 19 22 13 18 18 19 23 23 20 17 15 13 11 11 11 12 10 9 10 11 11 12 12 11 11 10 10 10 8 8 8 9 10 7 6 7 6 7 6 6 6 6 6 5 5 5 7 7 8 7 8 8 7 7 7 6 7 6
7 7 9 9 7 10 12 12 7 9 12 13 12 8 8 6 4 4 5 2 2 5 3 15 11 8 2 3 15 23 19 21 21 18 20 22 22 20 17 13 11 11 11 10 10 10 9 10 10 12 12 11 10 11 10 10 9 9 8 8 10 8 7 7 8 7 7 6 5 4 5 5 6 6 7 7 8 7 7 7 7 7 6 6 6 6
6 7 10 12 9 11 14 15 12 9 13 15 8 8 7 4 4 5 3 7 7 5 3 10 9 5 4 4 10 22 21 17 16 14 13 13 14 14 13 11 11 11 10 10 11 12 11 11 11 11 12 11 11 12 11 9 9 10 9 9 10 9 6 8 8 7 8 6 6 6 6 6 6 7 7 7 7 8 9 7 8 6 6 7 6 6
9 5 5 13 4 12 14 10 8 5 4 8 3 6 5 8 6 3 7 6 3 3 5 6 4 1 3 3 2 6 8 8 10 11 12 12 12 13 13 13 12 11 11 9 12 12 12 12 11 11 10 11 11 13 11 11 10 10 9 9 9 9 7 7 8 7 8 7 6 7 7 7 8 8 8 7 7 7 7 7 8 7 6 6 6 5
6 6 6 9 9 12 12 9 10 8 9 6 8 11 9 7 7 2 1 0 2 6 4 1 3 1 1 9 5 12 13 11 11 12 12 12 13 14 13 12 13 12 11 10 12 12 13 13 11 11 11 11 11 11 12 12 11 11 10 10 9 8 6 8 7 8 7 7 8 7 8 8 8 9 9 9 9 8 7 7 7 7 6 5 6 6
7 6 6 10 17 9 15 12 13 12 6 5 9 10 2 2 5 6 5 2 1 5 2 2 7 5 2 1 1 11 12 12 13 15 14 13 14 14 13 13 14 14 11 12 12 12 13 14 14 12 11 12 12 12 12 12 10 10 9 10 11 9 9 7 8 8 8 8 8 8 8 8 8 9 9 9 9 7 8 6 6 6 7 6 5 5
3 5 4 11 13 9 8 11 9 6 6 7 10 6 9 6 9 2 4 4 3 4 1 0 5 4 5 8 7 12 15 14 14 13 13 14 14 14 14 15 15 13 12 12 13 13 13 13 14 13 13 12 12 11 11 11 11 10 9 8 9 10 8 8 7 7 6 7 6 7 8 9 8 8 8 7 7 7 8 7 6 6 5 5 6 7
4 2 3 7 13 10 5 9 11 12 8 5 3 8 7 3 4 3 5 4 7 3 4 1 0 3 4 11 17 18 17 17 17 15 19 20 19 16 15 16 16 14 14 14 13 13 13 13 15 15 14 14 14 13 12 12 11 12 10 9 8 7 7 8 8 7 7 6 7 7 7 7 8 8 8 7 8 8 7 6 6 6 6 7 7 7
4 1 2 3 8 7 6 7 12 12 12 8 4 5 6 5 2 5 2 5 6 4 4 5 1 7 6 10 18 19 19 20 22 22 18 17 16 16 17 18 16 15 15 15 14 13 13 14 13 14 13 12 11 11 11 11 12 11 9 9 9 10 8 8 7 7 7 7 7 9 9 8 8 8 7 8 8 8 7 6 6 6 6 7 7 7
3 3 4 1 6 10 6 8 10 10 8 5 7 6 7 9 4 5 6 1 3 6 4 6 5 6 6 8 14 19 19 21 23 24 20 18 18 17 16 17 17 15 15 15 14 13 13 13 13 13 13 12 12 11 12 11 11 11 10 9 9 8 8 8 6 7 7 6 7 9 8 8 7 7 7 8 7 7 6 6 6 7 8 9 6 8
8 1 3 3 6 10 5 2 6 9 7 7 7 5 5 4 7 5 4 5 1 1 5 5 6 5 5 12 15 21 20 21 20 18 18 18 18 17 16 17 16 16 16 15 14 14 13 14 15 13 15 15 14 13 12 11 10 10 10 9 8 9 7 6 6 6 7 8 8 8 8 8 7 8 8 8 7 7 6 6 7 8 9 8 7 7
6 1 4 2 1 1 1 2 3 5 4 3 2 1 3 2 6 7 3 4 6 2 2 1 3 3 3 3 10 13 16 15 13 17 18 16 15 15 16 16 16 13 11 12 12 12 12 13 13 13 14 14 13 13 13 11 10 9 9 8 8 9 8 6 6 7 8 8 8 8 8 8 7 8 8 8 6 7 6 7 8 8 9 8 7 8
3 3 6 3 4 2 2 3 1 1 3 2 2 3 5 3 3 3 6 0 3 4 8 7 6 2 2 1 8 7 6 10 13 12 15 16 12 14 15 15 14 14 14 14 14 13 13 13 14 13 13 13 13 12 12 11 11 10 9 9 9 8 7 7 7 7 8 9 9 8 9 8 7 8 8 7 6 7 7 8 8 8 9 8 8 7
1 2 2 4 9 9 10 6 6 4 8 3 2 1 3 7 6 2 3 1 3 2 4 5 3 4 3 3 11 12 10 7 6 10 9 14 19 17 14 14 15 14 14 15 15 15 15 14 13 13 12 11 12 12 11 11 10 10 9 9 9 8 8 8 7 7 8 8 9 8 9 7 7 7 7 7 6 6 7 8 9 8 7 9 9 7
1 0 2 5 8 8 8 6 5 6 3 4 1 1 4 2 3 5 6 5 4 3 4 5 7 3 4 6 12 10 11 14 13 11 14 11 11 15 16 16 16 16 17 18 17 15 14 13 15 16 14 12 12 12 11 11 11 10 9 9 8 7 8 8 8 8 8 7 8 8 7 7 7 7 6 7 7 6 8 9 9 9 8 8 9 8
1 2 2 4 4 4 8 4 5 4 3 3 3 1 3 4 8 7 6 6 5 8 4 0 4 11 9 10 15 14 12 12 13 15 13 12 14 15 14 14 15 14 13 13 13 15 17 16 15 15 15 14 13 12 11 10 11 11 10 10 8 8 8 7 8 8 8 8 8 7 7 7 6 6 6 6 6 7 8 8 8 8 8 8 9 7
2 1 3 1 1 1 2 1 0 4 4 4 4 1 4 4 5 7 4 3 6 6 8 5 6 11 12 13 16 19 19 18 18 18 18 18 15 13 14 15 16 17 17 17 17 17 17 17 16 16 15 15 15 15 13 11 10 9 8 8 8 8 8 8 9 8 8 8 8 7 6 6 5 5 6 7 7 7 7 8 8 8 8 8 8 7
1 0 1 0 1 5 5 5 2 5 4 3 2 4 4 5 5 6 1 4 5 4 7 11 8 12 13 12 13 16 16 17 14 10 11 14 17 18 18 18 18 18 19 19 18 18 17 16 16 16 15 14 16 16 14 12 12 11 11 9 9 9 8 8 9 9 8 8 7 6 6 6 5 6 7 8 8 8 8 9 9 9 9 8 7 6
2 3 4 1 3 3 5 8 4 4 6 4 3 3 1 3 3 2 5 2 6 2 2 11 6 1 3 5 11 6 7 8 12 16 19 19 18 19 19 19 18 19 18 18 16 17 16 16 16 17 17 16 15 16 14 13 12 12 11 9 10 10 9 9 9 9 9 8 7 7 6 6 7 7 8 7 7 7 9 10 9 9 9 8 7 7
2 2 1 2 1 3 4 7 6 3 2 2 4 4 3 5 3 1 3 4 4 4 1 2 6 3 0 8 5 9 12 15 17 16 15 15 18 19 20 19 19 19 19 18 18 16 16 17 17 18 18 17 15 15 13 12 12 13 12 11 11 10 9 9 10 10 9 8 8 7 7 7 7 7 7 7 8 8 9 10 10 9 8 8 8 6
1 1 2 1 3 1 4 4 4 5 4 2 6 5 3 0 0 0 1 2 3 9 7 6 9 7 10 11 12 8 13 13 14 16 17 16 18 20 21 21 21 20 19 18 18 18 19 19 18 17 16 15 14 14 14 14 14 13 13 13 12 11 10 10 10 10 10 9 8 7 7 7 8 8 7 8 8 8 9 9 9 9 8 8 7 6
1 3 1 1 2 1 4 6 2 5 4 4 3 2 4 2 6 5 2 4 4 7 8 8 6 3 10 15 17 13 14 16 19 19 21 21 17 17 17 17 19 20 19 18 19 19 17 14 14 15 17 17 15 15 14 15 16 15 14 13 12 13 11 12 11 11 10 10 9 8 7 8 9 8 8 7 7 8 8 9 9 8 7 7 7 7
3 3 1 0 2 1 3 4 6 5 3 4 5 3 2 2 9 7 5 4 1 2 9 5 9 9 13 17 19 19 19 20 17 16 13 16 21 21 21 19 18 16 18 17 16 14 15 15 15 13 13 15 16 15 14 13 11 12 13 13 13 12 12 12 12 11 11 10 9 8 8 9 9 9 8 8 8 7 7 8 8 8 8 8 8 7
2 4 0 3 2 3 3 2 4 3 3 5 7 6 2 1 1 11 7 5 6 4 3 11 10 12 8 7 12 18 19 12 8 10 16 17 17 19 19 19 19 17 18 17 19 18 17 16 17 16 15 12 12 13 13 13 13 14 13 12 12 12 12 12 12 11 11 11 10 9 9 10 9 9 8 8 8 8 8 7 8 9 7 7 6 5
6 4 3 2 1 2 2 2 2 3 2 3 2 1 0 1 1 6 6 3 5 3 3 5 8 8 8 6 4 6 8 9 7 4 3 11 15 17 21 21 19 20 19 17 17 18 17 16 15 15 14 13 13 13 12 12 13 13 13 13 12 12 12 12 12 12 12 11 10 10 9 10 10 9 9 9 9 8 8 8 7 7 7 8 7 7
5 6 2 5 2 3 3 2 2 3 1 3 5 4 4 3 3 4 10 0 6 6 2 3 9 9 8 6 7 9 10 10 5 7 8 10 12 11 9 11 15 16 15 15 13 12 13 14 14 14 14 15 15 14 13 15 16 15 14 13 12 13 13 13 13 12 12 11 10 10 10 10 10 10 9 9 9 9 7 6 5 6 7 9 8 7
8 9 6 7 2 2 3 3 2 3 3 3 3 5 4 1 6 3 4 1 3 4 7 1 6 8 7 12 10 13 11 9 10 11 12 12 11 10 12 11 11 12 14 16 17 16 15 15 16 15 13 15 17 15 15 15 16 15 14 14 13 13 13 13 13 13 13 11 10 10 10 10 10 10 9 9 9 9 9 8 8 6 6 7 7 7
6 2 3 3 2 1 2 2 0 2 1 1 4 5 3 3 3 6 4 3 5 6 5 2 2 9 8 8 16 14 14 11 11 13 11 16 16 14 15 15 13 12 12 13 13 16 16 14 14 15 17 17 16 17 17 16 15 15 15 14 14 14 15 14 13 11 10 10 10 10 10 9 10 9 9 9 8 8 9 8 7 7 7 6 6 7
1 1 2 3 2 1 3 1 1 2 4 2 3 6 4 1 7 5 5 3 4 4 5 1 2 5 11 11 10 11 11 13 15 13 13 12 11 9 8 11 15 16 16 15 14 14 13 15 16 17 16 15 15 15 16 16 16 15 14 14 14 15 13 12 11 11 11 11 10 10 10 9 9 10 8 8 9 9 8 8 8 7 7 7 6 6
1 2 1 3 1 1 1 2 2 3 4 1 2 3 3 2 1 2 3 3 1 4 4 2 3 2 12 16 12 10 13 3 6 9 14 17 19 14 12 12 11 11 12 14 16 15 14 13 14 14 15 15 17 16 15 15 16 15 14 14 15 13 11 12 11 11 11 12 12 11 10 9 8 9 8 8 9 9 9 7 8 7 7 6 6 7
4 2 2 2 2 1 3 2 1 2 1 1 6 4 6 4 3 3 1 1 2 2 2 4 2 2 7 10 13 9 4 4 8 11 15 15 14 15 17 17 17 16 15 13 13 15 16 14 15 16 16 14 17 16 16 17 16 15 14 15 15 12 12 11 11 12 12 12 12 11 10 9 10 9 8 8 9 10 9 8 8 8 7 8 7 7
2 2 1 1 3 3 2 1 1 2 6 4 2 3 2 3 3 3 3 1 1 1 3 2 3 2 2 8 10 4 5 5 4 9 11 13 13 12 13 14 15 15 15 16 18 17 17 15 14 14 15 15 15 14 15 17 16 14 15 15 11 12 12 11 12 12 12 12 12 11 10 10 10 10 8 9 9 8 9 8 8 8 8 8 8 7
2 1 3 2 1 1 2 3 3 3 4 4 4 3 1 1 1 3 4 3 3 4 0 2 2 3 2 2 5 6 6 6 12 15 17 15 15 16 17 18 17 17 16 16 16 15 15 16 16 15 14 14 16 14 14 14 16 16 16 13 12 13 13 13 12 13 12 12 11 11 10 9 10 10 9 9 9 9 8 7 7 8 8 8 7 7
2 1 1 4 1 0 2 2 1 2 3 5 4 2 4 4 2 3 5 5 4 2 2 1 0 2 4 2 7 1 3 7 8 5 6 10 12 11 11 11 11 11 12 12 12 14 13 14 15 16 17 15 16 15 13 13 15 17 16 13 13 13 13 13 13 13 13 12 11 11 11 10 9 9 9 8 7 8 7 8 8 8 8 8 8 8
2 3 2 2 0 6 1 4 1 1 2 4 3 3 3 4 3 2 4 3 2 4 5 2 0 1 3 3 5 6 4 5 7 7 8 9 11 13 15 15 13 14 15 16 14 13 12 13 14 15 17 16 14 13 12 13 13 14 13 13 13 14 13 13 13 12 11 12 11 10 11 12 9 9 8 8 6 6 7 7 7 8 8 8 8 8
2 2 1 3 3 3 2 1 1 2 1 2 1 4 4 4 5 5 1 1 3 3 2 3 1 2 2 4 5 7 6 5 9 8 9 10 11 11 12 12 12 10 9 11 12 13 12 13 14 14 15 15 14 12 12 12 12 12 12 12 13 13 13 13 13 12 12 12 10 10 10 11 12 12 8 8 8 7 7 6 7 8 8 8 7 7
2 3 0 0 2 0 0 0 1 0 6 6 5 3 1 1 4 4 4 4 5 6 5 5 3 1 2 6 5 8 7 4 6 10 11 8 8 8 9 10 10 12 12 13 12 13 14 13 14 14 14 13 12 13 12 12 12 12 14 13 13 14 14 13 12 12 11 11 10 10 10 10 10 9 9 7 7 5 4 7 7 7 6 5 5 7
2 0 1 4 5 2 3 2 1 4 0 1 3 2 3 1 4 5 5 6 5 5 5 6 5 5 2 3 8 9 9 7 5 8 11 10 10 9 9 10 10 11 10 11 11 12 12 12 14 14 13 11 12 12 13 13 12 12 13 13 13 14 13 13 12 12 12 11 11 10 10 9 9 8 8 8 7 6 3 7 6 2 4 6 7 8
2 2 3 4 6 3 5 5 4 4 5 2 2 1 2 2 5 6 4 3 4 2 1 4 5 6 4 3 1 8 9 9 8 6 9 8 9 11 13 14 12 10 11 11 10 10 11 11 12 13 12 11 11 12 12 12 12 12 12 12 12 14 14 13 12 11 10 11 11 12 11 10 9 8 8 7 7 6 6 3 4 7 8 6 3 11
Wind_Direction
128 194 206 206 207 205 205 200 215 274 303 263 192 187 211 204 230 214 206 204 166 139 184 154 137 151 160 166 163 155 147 146 147 156 155 159 155 156 154 154 153 146 139 137 128 131 126 126 130 130 131 129 126 131 141 142 139 138 135 135 134 137 135 138 141 142 141 131 115 98 109 113 111 107 99 83 69 69 65 63 54 52 58 58 58 55
166 216 229 219 211 205 192 172 185 248 269 268 260 223 226 197 213 218 200 198 175 152 29 136 138 154 161 161 158 148 149 165 164 164 166 164 162 156 157 149 144 138 121 121 124 134 128 130 134 137 140 139 133 143 147 141 138 131 131 130 133 132 136 145 154 148 139 117 128 133 129 121 116 109 101 91 77 76 71 64 58 55 55 54 51 49
206 219 223 201 168 121 193 171 176 201 239 259 243 239 249 231 190 270 245 201 186 102 168 142 139 153 160 158 149 167 172 175 179 171 168 159 156 156 163 149 142 144 143 132 133 137 134 138 143 144 147 140 138 145 145 138 130 130 127 129 130 133 139 147 155 142 137 106 104 117 123 125 110 74 84 89 87 85 78 65 59 54 52 54 52 46
215 239 183 155 178 209 215 182 180 211 237 244 248 220 223 226 170 219 238 173 196 136 165 157 130 141 116 107 146 185 174 151 150 152 170 168 157 161 165 158 149 150 149 145 148 152 156 157 154 149 142 139 135 135 137 140 135 133 128 128 124 130 125 128 127 111 97 109 102 88 113 91 90 103 94 87 84 81 79 70 64 57 57 56 55 49
203 107 150 167 187 199 208 194 184 198 228 236 228 218 217 234 213 177 216 78 46 19 125 105 107 123 147 142 171 200 142 140 152 125 142 96 94 132 135 138 156 153 155 147 149 155 161 166 171 163 153 148 141 141 143 139 136 135 134 128 127 125 124 129 127 120 120 111 103 104 90 95 94 86 90 89 76 79 86 83 63 57 57 60 58 50
233 269 155 194 192 195 204 204 203 192 225 243 239 208 219 227 260 211 118 96 34 74 181 128 29 210 191 178 175 162 152 156 156 152 165 138 134 152 161 153 153 155 159 155 159 167 171 170 164 153 151 150 139 139 137 126 123 124 117 113 109 107 112 124 122 125 129 135 135 129 126 124 117 114 114 113 122 108 94 89 85 66 59 63 62 55
211 229 188 187 190 199 203 215 207 190 219 222 239 180 212 234 238 259 127 122 144 166 222 235 152 227 215 202 178 168 173 155 158 175 167 149 154 165 171 169 161 153 147 150 164 172 163 158 147 147 150 146 140 135 124 118 117 116 113 112 112 115 115 111 113 116 123 124 136 128 127 124 130 125 100 96 104 113 107 99 87 81 67 60 62 52
184 210 208 188 194 201 203 210 205 196 201 231 175 146 191 221 237 221 139 185 211 91 175 204 183 154 192 224 187 176 167 152 169 180 173 164 168 170 172 175 168 158 149 161 165 171 159 153 153 154 151 148 143 130 123 116 117 122 119 117 119 119 118 112 112 108 127 137 129 114 112 117 120 120 126 133 129 114 112 97 89 84 72 61 56 56
190 201 203 195 195 204 214 208 189 200 212 228 155 169 208 207 226 220 157 221 205 126 186 224 108 87 205 177 161 171 170 166 183 176 176 175 177 172 163 174 172 169 174 166 162 167 153 151 151 151 153 151 137 131 127 125 121 114 120 119 118 113 109 111 114 121 130 138 132 126 127 123 123 127 131 133 125 117 110 96 84 80 75 64 55 53
192 209 202 198 193 212 208 182 203 199 221 234 201 170 220 226 221 184 181 205 201 140 213 197 178 138 192 198 172 191 186 182 187 176 174 180 180 175 167 175 170 171 168 163 169 158 159 158 155 155 146 144 135 126 122 120 122 118 117 120 119 115 115 122 123 126 133 141 135 131 136 134 137 133 132 134 130 119 107 95 89 84 79 72 62 52
224 194 220 201 206 209 184 215 213 213 226 318 187 237 267 292 273 174 169 151 98 213 205 200 198 144 175 199 187 172 198 189 165 163 175 182 187 182 181 170 173 171 170 170 168 156 154 151 148 148 147 137 130 128 125 126 128 126 119 122 119 119 118 125 135 134 137 140 137 134 140 141 143 144 140 134 125 119 105 100 93 89 87 80 73 66
248 222 210 215 199 183 177 207 209 196 170 230 211 197 223 290 325 299 340 106 165 231 218 194 194 181 175 222 216 215 199 169 170 173 176 183 187 182 184 176 175 171 170 166 163 150 147 143 146 147 143 139 133 129 130 130 129 129 125 118 111 109 117 122 125 120 123 128 128 134 142 146 150 149 146 138 131 123 112 108 103 97 89 81 75 67
242 229 224 213 196 184 187 190 202 183 198 228 213 133 160 248 132 255 160 213 218 207 213 192 172 207 222 195 186 202 185 187 187 179 178 180 181 180 182 175 170 168 166 165 157 142 146 149 153 150 142 139 140 135 134 134 131 124 122 123 120 116 114 113 113 111 111 114 126 139 142 142 143 138 133 128 120 122 115 112 106 97 93 90 81 74
257 248 232 206 206 196 176 192 166 191 207 214 213 162 166 184 176 210 228 217 308 262 263 173 185 222 236 270 198 188 197 188 184 184 180 174 176 176 178 170 164 164 163 158 152 151 149 148 156 148 143 143 139 135 135 136 131 126 125 126 119 119 114 111 104 105 100 97 101 106 113 120 120 119 120 118 118 116 110 109 106 104 103 99 101 96
204 235 241 192 208 180 192 196 187 192 195 212 210 159 178 140 165 203 192 195 200 209 199 153 134 234 157 243 187 195 190 182 181 175 175 173 165 162 163 158 154 157 161 156 155 154 152 150 150 145 144 142 140 137 137 136 130 126 126 125 120 116 112 106 105 100 98 99 100 101 103 105 108 109 107 108 113 113 111 110 110 108 104 101 102 101
219 241 246 211 196 181 202 188 180 154 191 226 187 95 136 214 137 179 200 154 214 134 97 156 175 198 167 314 35 127 120 146 149 148 149 152 149 155 162 167 164 163 165 159 152 150 150 146 143 140 144 139 141 140 139 135 134 130 128 122 118 120 118 111 105 101 108 106 105 104 104 105 108 109 105 102 100 100 108 115 114 112 107 104 105 100
184 232 219 197 216 185 203 173 200 164 194 194 160 210 210 170 126 79 329 272 100 78 175 197 68 330 7 24 39 123 130 138 138 148 156 154 157 162 166 163 163 168 169 159 153 151 151 146 147 148 146 143 143 142 142 140 139 134 128 123 118 113 108 107 107 112 112 112 105 102 104 107 108 111 113 116 114 114 113 112 110 111 112 106 99 101
147 242 245 186 205 216 192 188 198 195 156 141 194 214 172 134 123 137 185 312 67 141 202 107 153 207 70 261 135 118 136 146 153 162 164 161 160 164 165 165 167 171 168 156 147 148 152 152 150 151 149 150 147 143 138 134 131 129 128 130 126 124 119 116 116 117 119 116 111 112 110 110 113 114 115 116 118 118 112 104 104 104 103 108 102 90
131 214 248 205 199 210 204 182 212 246 200 179 205 149 173 191 238 291 107 184 142 180 205 330 193 189 187 153 150 150 153 167 162 161 161 171 173 168 164 167 167 163 154 152 152 155 157 155 153 153 151 150 145 140 132 129 128 125 124 126 127 128 127 126 120 117 115 117 119 120 120 118 113 112 113 114 113 112 107 107 107 107 109 90 81 88
334 170 262 195 187 193 182 175 203 209 236 232 85 169 165 125 164 150 203 176 124 221 108 279 19 233 220 166 171 164 169 169 165 168 182 181 177 169 167 167 167 165 160 159 159 161 158 154 153 153 152 150 149 142 136 132 129 128 129 126 122 117 118 119 120 123 122 125 121 119 114 111 114 117 116 118 114 106 106 109 107 106 92 97 95 92
287 134 229 238 183 146 209 186 203 195 196 205 173 205 184 208 208 146 125 147 171 171 172 143 262 278 251 184 168 170 171 171 172 181 183 180 176 172 169 168 167 164 162 163 163 160 156 151 152 150 148 147 143 135 133 134 135 134 132 130 133 131 130 126 128 124 129 127 123 120 117 118 116 113 111 106 105 105 107 107 101 94 102 93 90 93
244 252 200 261 149 195 215 220 191 188 181 153 165 202 192 170 154 172 248 345 118 106 183 132 225 264 255 173 178 167 176 177 183 177 177 177 174 170 173 170 165 163 164 162 161 157 155 151 151 147 141 145 143 142 138 137 135 138 139 140 136 131 135 135 131 131 131 125 122 118 118 115 114 112 107 106 104 106 105 100 96 103 94 91 92 91
214 135 116 184 190 189 195 156 152 163 162 173 155 237 180 135 118 104 162 259 18 193 133 157 144 261 241 182 177 176 180 182 178 172 170 172 172 171 172 168 165 163 161 159 157 158 158 156 154 149 147 151 150 147 141 141 142 142 141 140 141 139 144 138 133 130 128 125 120 117 116 114 113 112 111 109 109 108 108 105 102 99 98 97 93 85
133 147 183 223 237 305 311 336 119 158 138 166 218 144 112 180 169 162 162 188 148 217 88 21 177 252 289 191 178 187 181 175 164 167 168 169 166 167 164 163 159 154 153 150 151 153 154 155 152 148 151 153 153 148 148 146 140 140 142 143 142 143 141 131 132 129 124 121 118 118 115 115 118 115 117 115 117 114 113 107 103 103 100 100 96 93
156 263 122 145 103 147 320 341 344 357 108 136 185 239 193 140 134 188 119 129 163 232 166 120 192 252 287 173 158 166 148 158 170 174 163 157 160 161 161 160 158 153 149 151 153 153 153 157 158 156 156 156 151 146 147 146 146 145 146 146 145 141 137 133 130 127 127 125 122 120 120 122 121 121 121 123 122 120 112 107 107 106 108 103 96 95
117 240 97 129 155 161 190 186 205 188 191 233 186 220 218 146 160 122 163 96 145 284 132 136 214 258 297 137 150 161 162 152 152 156 163 163 160 160 160 158 155 154 156 155 155 156 161 164 159 156 158 154 151 149 148 147 147 149 149 149 146 139 136 134 130 131 128 127 124 125 125 127 126 127 129 130 128 125 116 113 111 108 104 103 99 91
147 193 104 152 142 181 199 203 233 135 132 162 223 125 254 129 126 113 115 111 190 215 184 233 165 120 106 160 151 163 150 154 154 162 164 168 169 159 156 158 161 163 161 161 163 164 158 159 164 160 157 156 154 152 153 152 152 152 149 146 142 136 134 134 133 132 129 129 128 130 132 133 133 132 132 131 129 122 116 115 115 110 107 103 100 99
60 8 331 118 145 188 193 208 206 137 132 166 114 241 269 153 140 120 129 197 171 108 219 266 175 131 192 178 165 164 163 162 167 164 162 159 160 161 161 159 157 155 156 156 158 163 167 167 164 162 159 156 156 154 153 155 154 154 152 148 141 137 137 138 135 133 131 132 132 134 139 138 136 132 129 124 120 117 117 116 113 110 109 105 102 102
132 204 273 211 300 257 191 215 158 126 134 151 153 164 236 162 112 123 195 185 122 150 205 202 189 150 183 188 175 169 165 172 172 173 171 164 155 152 154 157 161 163 164 167 171 171 169 169 168 165 161 158 156 158 158 155 153 147 144 142 139 143 145 141 135 135 136 136 137 142 142 135 130 126 124 121 117 117 117 115 113 112 109 105 106 106
49 296 256 156 349 352 354 11 108 129 129 119 127 184 203 135 171 137 155 157 152 222 183 157 189 172 176 177 176 177 175 168 162 138 133 148 162 164 165 165 167 168 173 176 175 174 174 172 169 166 163 160 161 161 159 158 154 153 152 150 149 151 149 141 140 139 141 142 144 145 141 134 129 128 125 121 119 118 116 116 116 112 108 107 108 108
108 263 252 10 54 332 321 14 44 123 133 174 236 216 162 131 146 139 118 144 95 37 311 150 139 186 308 181 168 147 133 119 126 151 164 166 165 167 168 171 173 174 178 178 175 176 174 173 171 167 166 166 164 164 162 160 154 153 151 151 156 156 154 144 143 143 145 148 149 146 138 133 134 132 128 126 120 117 118 121 120 116 114 113 111 106
78 259 47 37 73 316 350 31 344 83 108 177 221 244 255 102 103 224 129 212 118 182 43 107 118 201 119 105 102 126 136 152 162 162 162 169 171 170 171 175 176 178 178 179 179 175 173 174 175 174 170 167 164 164 162 158 155 153 157 158 162 159 153 149 148 148 150 151 150 145 143 140 137 132 132 128 127 124 124 124 123 121 120 117 111 108
172 138 42 38 75 285 306 21 341 94 59 331 270 237 228 149 190 67 311 131 169 147 120 153 208 189 157 145 136 154 159 164 163 169 173 172 173 174 176 177 180 180 180 178 178 179 179 178 177 174 167 164 166 164 165 158 157 162 161 164 163 155 156 154 152 152 153 155 153 150 145 143 137 136 136 135 132 130 126 125 124 126 125 121 121 115
44 72 50 139 113 271 336 331 352 105 175 233 230 199 176 176 160 140 200 166 171 142 188 189 192 163 145 153 161 170 170 174 180 187 174 168 171 179 182 180 180 181 181 181 182 180 177 172 173 176 172 168 166 163 162 166 167 167 162 158 156 158 158 155 158 157 157 156 156 151 149 144 138 138 140 137 133 130 126 126 130 131 128 124 118 114
80 67 12 141 85 60 340 9 84 170 232 241 281 283 227 235 128 116 73 10 33 118 100 86 118 156 172 170 172 174 182 189 182 166 179 178 169 170 175 181 184 181 181 180 180 179 177 175 172 171 173 172 165 161 162 168 163 148 151 157 159 161 157 158 158 161 160 159 155 153 152 147 141 141 143 140 135 131 129 127 127 130 133 131 131 130
115 84 113 22 96 34 45 46 114 210 239 302 303 302 273 112 119 89 32 15 33 349 131 149 176 165 180 193 188 180 181 167 155 178 173 173 177 174 173 179 182 180 180 182 179 178 174 175 174 173 173 167 161 161 161 159 154 153 157 158 159 159 159 158 161 163 162 162 160 159 157 150 145 145 146 143 139 136 136 134 135 136 140 134 132 129
132 98 73 18 39 138 202 125 185 298 9 351 20 64 151 178 122 143 123 12 314 340 325 174 172 165 174 180 114 65 76 92 122 157 210 184 184 185 179 180 177 182 182 178 176 177 176 170 169 170 166 163 162 159 156 149 153 154 154 160 163 161 161 162 166 168 167 164 163 160 158 153 149 149 151 149 145 144 144 140 135 134 134 132 138 139
118 103 248 96 302 121 125 44 13 34 113 275 244 276 289 219 150 159 103 337 320 332 6 153 176 189 163 121 120 116 108 103 139 228 207 197 195 190 196 186 180 176 170 169 170 169 168 168 168 168 166 162 161 162 156 157 160 159 160 162 162 162 165 170 173 170 168 166 163 159 158 156 152 153 156 154 153 151 147 140 134 139 139 140 148 150
53 95 142 110 235 27 35 106 179 133 235 209 271 260 277 201 143 129 72 29 269 286 309 327 159 191 170 143 139 131 133 159 206 214 199 186 183 182 175 177 176 173 168 168 168 169 170 170 168 166 164 164 164 159 155 158 158 157 161 163 166 169 170 174 171 171 170 165 159 158 158 156 153 156 158 157 157 154 150 150 151 150 136 138 143 153
56 13 57 38 42 341 142 85 286 193 131 334 257 271 248 180 83 62 176 259 264 296 287 293 144 162 169 159 149 156 156 182 207 228 194 183 180 174 172 170 167 166 170 171 173 169 166 163 162 167 167 171 168 156 155 157 160 163 165 168 168 172 177 176 171 166 159 156 157 158 158 157 156 160 162 160 155 154 151 148 142 148 147 145 145 152
45 6 82 175 155 4 84 291 344 322 293 260 258 271 274 201 73 99 193 233 259 277 292 286 285 156 148 150 167 170 199 185 198 203 162 155 141 159 168 170 168 165 167 170 170 163 165 169 170 172 170 167 163 161 158 160 163 167 169 169 174 180 175 166 161 161 159 156 158 160 159 158 158 161 165 161 158 155 150 147 150 152 151 154 153 152
14 95 341 85 93 179 177 116 209 236 243 233 264 215 236 66 97 194 231 209 213 281 314 343 331 134 156 160 183 188 200 224 67 100 142 160 172 163 153 154 159 170 171 167 162 163 166 167 169 167 167 166 165 164 163 164 166 168 170 173 180 175 162 159 161 159 158 160 160 160 160 160 158 159 160 159 155 155 152 154 153 158 159 155 157 163
208 119 231 176 218 69 54 68 30 124 259 57 323 356 30 97 225 207 241 307 219 253 45 353 324 317 168 176 192 192 132 127 142 151 159 156 147 155 160 165 167 168 166 163 169 171 164 167 170 170 168 166 168 167 166 166 168 171 171 179 177 160 157 161 159 160 160 160 161 163 162 161 161 162 162 163 162 159 158 155 158 163 161 161 167 169
201 82 302 271 174 155 107 120 176 215 255 301 110 133 263 161 188 166 140 344 302 157 48 20 344 315 236 186 183 182 166 144 127 145 148 158 161 154 161 163 166 167 169 172 170 169 166 166 166 165 166 166 170 171 169 168 168 169 174 178 160 151 157 161 162 160 161 163 164 162 163 163 165 164 163 163 163 159 153 157 161 163 170 171 170 176
318 137 177 144 253 124 190 204 246 245 241 305 70 123 160 354 59 159 129 121 49 357 201 83 22 14 49 143 129 144 132 178 165 163 158 165 160 162 167 172 170 169 167 168 172 169 168 166 164 161 165 169 170 172 171 171 167 168 174 168 154 160 163 164 162 162 163 165 165 164 162 163 166 165 163 167 163 158 157 161 160 164 180 172 178 181
277 232 208 79 50 300 81 154 199 339 355 356 16 71 103 76 87 102 81 57 5 327 333 102 19 92 72 101 101 51 141 149 142 139 132 144 152 158 155 155 163 162 160 158 161 168 167 162 161 161 164 171 172 171 171 171 169 169 173 159 162 164 163 162 162 164 166 165 164 163 161 163 166 165 167 167 166 159 161 164 169 168 175 178 184 188
291 5 39 106 233 71 136 310 31 150 351 351 357 17 54 76 50 83 77 72 38 18 15 354 229 92 113 94 119 129 137 150 136 127 131 138 147 158 162 164 164 163 163 168 166 159 159 161 162 164 163 167 173 170 170 168 172 171 161 160 163 163 162 163 162 163 164 165 163 162 162 163 165 166 168 168 161 154 161 165 172 171 173 181 186 191
332 33 53 29 47 106 192 195 284 301 337 6 91 95 74 34 25 15 26 83 78 52 41 338 104 105 101 97 130 130 136 139 133 135 140 150 154 157 160 158 153 151 160 155 155 162 158 161 162 162 164 165 167 167 165 168 167 167 158 159 161 160 159 161 165 165 166 163 162 163 166 165 164 163 167 172 164 159 165 179 178 176 182 185 189 186
264 25 127 237 115 312 348 45 304 293 37 25 22 26 76 129 80 20 5 22 49 42 18 25 28 322 111 138 126 124 126 152 153 144 141 142 141 148 150 148 150 151 149 153 162 161 163 164 162 162 162 164 163 162 164 167 167 165 159 162 162 160 161 163 161 162 162 162 162 165 166 164 166 167 166 167 168 160 158 179 187 184 202 219 195 189
57 80 254 70 84 138 165 190 125 94 248 338 10 8 30 26 79 55 31 28 15 45 46 34 9 12 38 126 137 135 140 141 151 144 144 150 152 144 134 139 146 149 155 157 158 161 159 160 158 160 161 161 161 162 164 166 167 161 161 164 164 160 160 158 160 162 164 166 166 163 163 164 165 164 165 165 164 138 78 32 68 90 180 220 204 212
143 202 130 134 157 213 245 237 195 149 142 196 165 70 40 41 75 65 38 359 351 3 1 74 40 16 0 357 44 137 142 152 158 150 139 146 153 155 151 146 146 151 153 155 152 158 158 160 160 158 158 160 159 162 163 166 164 161 165 166 165 163 160 158 160 165 165 168 170 168 166 165 165 167 164 162 155 153 143 126 39 41 39 10 262 182